Flag for India Weather past 2 weeks in Tiruchirappalli, Tamil Nadu, India

Now
82 °F

Passing clouds.


Feels Like: 86 °F
Forecast: 80 / 101 °F
Wind: 9 mph from West

Location: Tiruchchirapalli

Current Time: Jul 2, 2015 at 4:53:25 AM

Latest Report: Jul 2, 2015 at 4:10 AM


Visibility: 4 mi

Pressure: 29.80 "Hg

Humidity: 66%

Dew point: 70 °F

Location of TiruchirappalliLocation

Historic Weather in Tiruchirappalli — Graph

°F

Tiruchirappalli temperature yesterday

Maximum temperature yesterday: 102 °F (at 2:40 PM)
Minimum temperature yesterday: 79 °F (at 12:10 AM)
Average temperature yesterday: 90 °F

Past Weeks' High & Low Weather Summary

 TemperatureHumidityPressure
High102 °F (Jun 24, 2:40 PM)84% (Jun 23, 6:40 AM)29.86 "Hg (Jun 23, 6:40 AM)
Low79 °F (Jun 17, 5:10 AM)31% (Jul 1, 2:40 PM)29.59 "Hg (Jun 17, 3:40 PM)
Average88 °F57%29.72 "Hg
* Reported Jun 17 3:10 AM — Jul 2 3:10 AM, Tiruchirappalli, Weather by CustomWeather, © 2015

Note: Actual official high and low records may vary slightly from our data, if they occured in-between our weather recording intervals... More about our weather records

Advertising

Tiruchirappalli weather history for previous 24 hours

 ConditionsComfort  
Time TempWeatherWind HumidityBarometerVisibility
3:10 AM
Thu, Jul 2
84 °FPassing clouds.10 mph62%29.80 "Hg4 mi
2:40 AM84 °FPassing clouds.10 mph62%29.80 "Hg4 mi
2:10 AM82 °FPassing clouds.9 mph66%29.80 "Hg4 mi
1:40 AM82 °FPassing clouds.6 mph70%29.83 "Hg4 mi
1:10 AM82 °FPassing clouds.6 mph70%29.83 "Hg4 mi
12:40 AM82 °FPassing clouds.5 mph74%29.83 "Hg4 mi
12:10 AM82 °FPassing clouds.5 mph74%29.86 "Hg4 mi
11:40 PM
Wed, Jul 1
84 °FPassing clouds.5 mph70%29.86 "Hg4 mi
11:10 PM84 °FPassing clouds.6 mph70%29.86 "Hg4 mi
10:40 PM86 °FPassing clouds.6 mph66%29.83 "Hg4 mi
10:10 PM86 °FPassing clouds.7 mph66%29.83 "Hg4 mi
9:40 PM86 °FPassing clouds.6 mph70%29.83 "Hg4 mi
9:10 PM88 °FPassing clouds.7 mph66%29.83 "Hg4 mi
8:40 PM88 °FPassing clouds.7 mph66%29.80 "Hg4 mi
8:10 PM91 °FPassing clouds.12 mph49%29.80 "Hg4 mi
7:40 PM91 °FPassing clouds.9 mph44%29.77 "Hg4 mi
7:10 PM93 °FScattered clouds.5 mph41%29.74 "Hg4 mi
6:40 PM95 °FPassing clouds.9 mph36%29.74 "Hg5 mi
6:10 PM99 °FPassing clouds.10 mph35%29.71 "Hg5 mi
5:40 PM100 °FPassing clouds.12 mph33%29.71 "Hg5 mi
5:10 PM100 °FPassing clouds.13 mph35%29.71 "Hg5 mi
4:40 PM102 °FPassing clouds.13 mph31%29.71 "Hg5 mi
4:10 PM102 °FScattered clouds.12 mph31%29.71 "Hg5 mi
3:40 PM102 °FScattered clouds.9 mph31%29.71 "Hg5 mi
3:10 PM102 °FScattered clouds.9 mph31%29.71 "Hg5 mi
2:40 PM102 °FScattered clouds.10 mph31%29.74 "Hg5 mi
2:10 PM100 °FScattered clouds.13 mph35%29.74 "Hg5 mi
1:40 PM100 °FScattered clouds.9 mph35%29.77 "Hg5 mi
1:10 PM100 °FPassing clouds.12 mph35%29.77 "Hg5 mi
12:40 PM99 °FPassing clouds.12 mph37%29.80 "Hg5 mi
12:10 PM97 °FPassing clouds.10 mph39%29.80 "Hg4 mi
11:40 AM97 °FPassing clouds.14 mph42%29.83 "Hg4 mi
11:10 AM95 °FPassing clouds.9 mph47%29.83 "Hg4 mi
10:40 AM93 °FPassing clouds.9 mph49%29.83 "Hg4 mi
10:10 AM91 °FHaze.9 mph52%29.86 "Hg3 mi
9:40 AM90 °FHaze.9 mph55%29.86 "Hg3 mi
9:10 AM88 °FHaze.12 mph59%29.86 "Hg3 mi
8:40 AM86 °FHaze.14 mph62%29.86 "Hg3 mi
7:40 AM82 °FHaze.9 mph66%29.83 "Hg2 mi
7:10 AM81 °FHaze.6 mph70%29.83 "Hg2 mi
6:40 AM81 °FScattered clouds.9 mph70%29.83 "Hg2 mi
6:10 AM81 °FPassing clouds.9 mph70%29.80 "Hg3 mi
5:40 AM81 °FPassing clouds.9 mph70%29.80 "Hg3 mi
4:40 AM79 °FPassing clouds.6 mph84%29.80 "Hg3 mi
4:10 AM79 °FPassing clouds.6 mph84%29.80 "Hg3 mi
Weather by CustomWeather, © 2015

See weather overviewHow to use our weather pages